Location: Gleizolles
(44.4833°N, 6.7667°E)
Time: 17:07:03
(UTC+00:00)

RS-15 - Pass Details

Date: 06 December 2022
Orbit: 1883 x 2162 km, 64.8° (Epoch: 05 February)

Event Time Altitude Azimuth Distance (km) Brightness Sun altitude
Rises 17:46:03 0° 317° (NW) 5,693 10.9 -19.4°
Reaches altitude 10° 17:49:54 10° 324° (NW) 4,677 10.3 -20.0°
Maximum altitude 18:01:31 44° 34° (NE) 2,705 8.4 -22.1°
Enters shadow 18:06:21 32° 80° (E) 3,111 8.5 -22.9°
